Location: Unspecified
(50.7693°N, 0.0000°E)
Time: 02:31:51
(UTC+00:00)

A-11 Canister half - Pass Details

Date: 24 June 2019
Orbit: 1526 x 1683 km, 47.3° (Epoch: 17 July)

Event Time Altitude Azimuth Distance (km) Brightness Sun altitude
Rises 10:18:32 0° 287° (WNW) 4,686 11.2 56.1°
Reaches altitude 10° 10:21:56 10° 279° (W) 3,697 10.9 56.4°
Maximum altitude 10:29:51 33° 220° (SW) 2,346 10.5 57.3°
Drops below altitude 10° 10:37:51 10° 160° (SSE) 3,721 11.7 58.1°
Sets 10:41:18 0° 151° (SSE) 4,719 12.0 58.5°
